Location: Newark
(7.0858°N, 171.3717°E)
Time: 03:04:09
(UTC+00:00)

Transit 2A - Pass Details

Date: 28 November 2020
Orbit: 598 x 960 km, 66.7° (Epoch: 20 January)

Event Time Altitude Azimuth Distance (km) Brightness Sun altitude
Rises 05:45:11 0° 227° (SW) 3,576 11.1 6.0°
Reaches altitude 10° 05:48:13 10° 241° (WSW) 2,661 11.4 5.3°
Maximum altitude 05:53:05 24° 292° (WNW) 1,880 8.8 4.2°
Drops below altitude 10° 05:58:00 10° 344° (NNW) 2,676 8.8 3.1°
Sets 06:01:04 0° 358° (N) 3,599 9.3 2.4°
